Location: Centerville
(32.8776°N, 96.6203°W)
Time: 12:15:01
(UTC+00:00)

Lacrosse 4 Rocket - Pass Details

Date: 17 June 2021
Orbit: 543 x 614 km, 68.0° (Epoch: 31 July)

Event Time Altitude Azimuth Distance (km) Brightness Sun altitude
Rises 09:02:02 0° 347° (NNW) 2,727 5.4 -22.7°
Reaches altitude 10° 09:04:28 10° 358° (N) 1,822 4.6 -22.4°
Maximum altitude 09:08:04 30° 61° (ENE) 992 3.2 -21.9°
Drops below altitude 10° 09:11:37 10° 123° (ESE) 1,800 4.0 -21.5°
Sets 09:14:00 0° 134° (SE) 2,689 4.8 -21.1°
